This demonstration page uses our WeatherBlox Daily Observations layout. Learn more.

Left ArrowRight Arrow

36.17497, -115.13722

Hourly Observations for March 16, 2019

Temp ( °F °C ) Dew Point ( °F °C ) Humidity (%) Winds ( mph kmh ) Pressure ( in mb ) Visibility ( mi km ) Precip ( " mm )
12:53 am 00:53 Clear 56 13.3 20 -6.7 24 24 NNW 6 9 30.19 1022 10 16 0.00 0.00
1:53 am 01:53 Clear 56 13.3 19 -7.2 24 24 VRB 3 6 30.20 1023 10 16 0.00 0.00
2:53 am 02:53 Clear 52 11.1 21 -6.1 30 30 N 5 7 30.20 1023 10 16 0.00 0.00
3:53 am 03:53 Clear 52 11.1 21 -6.1 30 30 N 12 19 30.19 1022 10 16 0.00 0.00
4:53 am 04:53 Clear 51 10.6 22 -5.6 32 32 NNW 15 24 30.20 1023 10 16 0.00 0.00
5:53 am 05:53 Clear 51 10.6 21 -6.1 31 31 NNW 15 24 30.21 1023 10 16 0.00 0.00
6:53 am 06:53 Sunny 50 10 21 -6.1 32 32 N 17 28 30.23 1024 10 16 0.00 0.00
7:53 am 07:53 Sunny 52 11.1 21 -6.1 30 30 N 17 28 30.24 1024 10 16 0.00 0.00
8:53 am 08:53 Sunny 55 12.8 21 -6.1 26 26 N 15 24 30.25 1025 10 16 0.00 0.00
9:53 am 09:53 Sunny 59 15 20 -6.7 22 22 N 13 20 30.25 1025 10 16 0.00 0.00
10:53 am 10:53 Sunny 61 16.1 20 -6.7 20 20 NE 5 7 30.24 1024 10 16 0.00 0.00
11:53 am 11:53 Sunny 63 17.2 20 -6.7 19 19 VRB 3 6 30.22 1023 10 16 0.00 0.00
12:53 pm 12:53 Sunny 65 18.3 21 -6.1 19 19 VRB 3 6 30.19 1022 10 16 0.00 0.00
1:36 pm 13:36 Sunny 67 19.4 21 -6.1 17 17 NNW 6 9 30.07 1018 10 16 0.00 0.00
1:53 pm 13:53 Sunny 69 20.6 21 -6.1 16 16 E 16 26 30.15 1021 10 16 0.00 0.00
2:01 pm 14:01 Sunny 68 20 21 -6.1 17 17 E 14 22 30.04 1017 10 16 0.00 0.00
2:53 pm 14:53 Sunny 69 20.6 22 -5.6 17 17 E 15 24 30.13 1020 10 16 0.00 0.00
3:53 pm 15:53 Sunny 70 21.1 22 -5.6 16 16 ESE 13 20 30.12 1020 10 16 0.00 0.00
4:53 pm 16:53 Sunny 70 21.1 22 -5.6 16 16 E 10 17 30.11 1020 10 16 0.00 0.00
5:53 pm 17:53 Sunny 69 20.6 23 -5 17 17 E 9 15 30.11 1020 10 16 0.00 0.00
6:53 pm 18:53 Clear 67 19.4 23 -5 19 19 E 3 6 30.11 1020 10 16 0.00 0.00
7:53 pm 19:53 Clear 65 18.3 25 -3.9 22 22 NW 3 6 30.12 1020 10 16 0.00 0.00
8:53 pm 20:53 Clear 62 16.7 27 -2.8 26 26 NNW 6 9 30.13 1020 10 16 0.00 0.00
9:53 pm 21:53 Clear 61 16.1 24 -4.4 24 24 NNW 7 11 30.14 1021 10 16 0.00 0.00
10:53 pm 22:53 Clear 58 14.4 25 -3.9 28 28 NW 9 15 30.14 1021 10 16 0.00 0.00
11:53 pm 23:53 Clear 61 16.1 23 -5 23 23 NNW 10 17 30.15 1021 10 16 0.00 0.00

Powered by AerisWeather